Time,TemperatureF,DewpointF,PressureIn,WindDirection,WindDirectionDegrees,WindSpeedMPH,WindSpeedGustMPH,Humidity,HourlyPrecipIn,Conditions,Clouds,dailyrainin,SoftwareType,DateUTC
2013-04-28 00:04:00,50.7,45.7,29.75,SSW,202,6.3,-999.0,83,-99.99,,,0.00,Acu-Link.com,2013-04-28 05:04:00,
2013-04-28 00:19:00,50.0,46.0,29.75,South,180,7.3,-999.0,86,-99.99,,,0.00,Acu-Link.com,2013-04-28 05:19:00,
2013-04-28 00:34:00,49.8,46.4,29.76,SSW,202,6.3,-999.0,88,-99.99,,,0.00,Acu-Link.com,2013-04-28 05:34:00,
2013-04-28 00:49:00,49.6,46.8,29.76,SW,225,6.8,-999.0,90,-99.99,,,0.00,Acu-Link.com,2013-04-28 05:49:00,
2013-04-28 01:05:00,49.8,47.0,29.76,SSW,202,5.8,-999.0,90,-99.99,,,0.00,Acu-Link.com,2013-04-28 06:05:00,
2013-04-28 01:20:00,49.3,46.8,29.76,SSW,202,6.8,-999.0,91,-99.99,,,0.00,Acu-Link.com,2013-04-28 06:20:00,
2013-04-28 01:35:00,49.1,46.6,29.75,SSW,202,5.8,-999.0,91,-99.99,,,0.00,Acu-Link.com,2013-04-28 06:35:00,
2013-04-28 01:50:00,48.4,46.5,29.75,South,180,5.3,-999.0,93,-99.99,,,0.00,Acu-Link.com,2013-04-28 06:50:00,
2013-04-28 02:05:00,48.2,46.3,29.74,SSW,202,4.7,-999.0,93,-99.99,,,0.00,Acu-Link.com,2013-04-28 07:05:00,
2013-04-28 02:21:00,48.6,46.7,29.75,SSW,202,6.3,-999.0,93,-99.99,,,0.00,Acu-Link.com,2013-04-28 07:21:00,
2013-04-28 02:36:00,48.4,46.5,29.75,SW,225,5.3,-999.0,93,-99.99,,,0.00,Acu-Link.com,2013-04-28 07:36:00,
2013-04-28 02:51:00,48.4,46.5,29.75,SW,225,6.3,-999.0,93,-99.99,,,0.00,Acu-Link.com,2013-04-28 07:51:00,
2013-04-28 03:06:00,48.0,46.1,29.75,SSW,202,4.2,-999.0,93,-99.99,,,0.00,Acu-Link.com,2013-04-28 08:06:00,
2013-04-28 03:21:00,47.5,45.9,29.75,SSW,202,3.7,-999.0,94,-99.99,,,0.00,Acu-Link.com,2013-04-28 08:21:00,
2013-04-28 03:36:00,47.7,46.3,29.74,South,180,8.3,-999.0,95,-99.99,,,0.00,Acu-Link.com,2013-04-28 08:36:00,
2013-04-28 03:52:00,47.1,45.7,29.74,SSW,202,6.3,-999.0,95,-99.99,,,0.00,Acu-Link.com,2013-04-28 08:52:00,
2013-04-28 04:07:00,47.1,45.7,29.74,South,180,7.8,-999.0,95,-99.99,,,0.00,Acu-Link.com,2013-04-28 09:07:00,
2013-04-28 04:22:00,46.9,45.5,29.74,South,180,5.8,-999.0,95,-99.99,,,0.00,Acu-Link.com,2013-04-28 09:22:00,
2013-04-28 04:37:00,46.6,45.5,29.74,SSW,202,7.3,-999.0,96,-99.99,,,0.00,Acu-Link.com,2013-04-28 09:37:00,
2013-04-28 04:52:00,46.2,45.1,29.73,SSE,157,5.8,-999.0,96,-99.99,,,0.00,Acu-Link.com,2013-04-28 09:52:00,
2013-04-28 05:08:00,46.0,45.2,29.73,SSE,157,8.3,-999.0,97,-99.99,,,0.00,Acu-Link.com,2013-04-28 10:08:00,
2013-04-28 05:23:00,45.9,45.1,29.73,SSW,202,10.9,-999.0,97,-99.99,,,0.00,Acu-Link.com,2013-04-28 10:23:00,
2013-04-28 05:38:00,45.9,45.1,29.73,South,180,8.9,-999.0,97,-99.99,,,0.00,Acu-Link.com,2013-04-28 10:38:00,
2013-04-28 05:53:00,45.5,44.7,29.73,South,180,6.8,-999.0,97,-99.99,,,0.00,Acu-Link.com,2013-04-28 10:53:00,
2013-04-28 06:08:00,45.5,45.0,29.73,SSE,157,7.8,-999.0,98,-99.99,,,0.00,Acu-Link.com,2013-04-28 11:08:00,
2013-04-28 06:24:00,45.5,45.2,29.73,SSW,202,8.3,-999.0,99,-99.99,,,0.00,Acu-Link.com,2013-04-28 11:24:00,
2013-04-28 06:39:00,45.9,45.6,29.73,SSE,157,11.4,-999.0,99,-99.99,,,0.00,Acu-Link.com,2013-04-28 11:39:00,
2013-04-28 06:54:00,46.2,45.7,29.73,South,180,8.9,-999.0,98,-99.99,,,0.00,Acu-Link.com,2013-04-28 11:54:00,
2013-04-28 07:09:00,46.9,46.1,29.72,SSE,157,6.8,-999.0,97,-99.99,,,0.00,Acu-Link.com,2013-04-28 12:09:00,
2013-04-28 07:25:00,47.8,46.4,29.72,South,180,5.8,-999.0,95,-99.99,,,0.00,Acu-Link.com,2013-04-28 12:25:00,
2013-04-28 07:40:00,49.1,47.2,29.71,SSW,202,9.9,-999.0,93,-99.99,,,0.00,Acu-Link.com,2013-04-28 12:40:00,
2013-04-28 07:55:00,50.5,48.0,29.70,South,180,5.8,-999.0,91,-99.99,,,0.00,Acu-Link.com,2013-04-28 12:55:00,
2013-04-28 08:10:00,51.8,48.7,29.70,South,180,6.8,-999.0,89,-99.99,,,0.00,Acu-Link.com,2013-04-28 13:10:00,
2013-04-28 08:25:00,52.9,49.7,29.70,SSW,202,6.8,-999.0,89,-99.99,,,0.00,Acu-Link.com,2013-04-28 13:25:00,
2013-04-28 08:41:00,54.0,50.2,29.69,SSW,202,4.7,-999.0,87,-99.99,,,0.00,Acu-Link.com,2013-04-28 13:41:00,
2013-04-28 08:56:00,54.9,50.8,29.68,South,180,9.9,-999.0,86,-99.99,,,0.00,Acu-Link.com,2013-04-28 13:56:00,
2013-04-28 09:11:00,55.9,51.1,29.66,SW,225,5.8,-999.0,84,-99.99,,,0.00,Acu-Link.com,2013-04-28 14:11:00,
2013-04-28 09:26:00,56.8,51.7,29.64,SW,225,7.3,-999.0,83,-99.99,,,0.00,Acu-Link.com,2013-04-28 14:26:00,
2013-04-28 09:41:00,58.6,52.8,29.62,SW,225,8.9,-999.0,81,-99.99,,,0.00,Acu-Link.com,2013-04-28 14:41:00,
2013-04-28 09:57:00,60.4,53.2,29.61,SSW,202,12.5,-999.0,77,-99.99,,,0.00,Acu-Link.com,2013-04-28 14:57:00,
2013-04-28 10:12:00,60.3,52.7,29.61,South,180,8.3,-999.0,76,-99.99,,,0.00,Acu-Link.com,2013-04-28 15:12:00,
2013-04-28 10:27:00,62.6,53.1,29.61,SSW,202,9.4,-999.0,71,-99.99,,,0.00,Acu-Link.com,2013-04-28 15:27:00,
2013-04-28 10:42:00,64.0,54.0,29.64,SSW,202,14.0,-999.0,70,-99.99,,,0.00,Acu-Link.com,2013-04-28 15:42:00,
2013-04-28 10:58:00,67.3,54.7,29.66,SW,225,7.3,-999.0,64,-99.99,,,0.00,Acu-Link.com,2013-04-28 15:58:00,
2013-04-28 11:13:00,68.0,53.6,29.65,South,180,9.9,-999.0,60,-99.99,,,0.00,Acu-Link.com,2013-04-28 16:13:00,
2013-04-28 11:28:00,69.3,53.9,29.65,SSE,157,6.8,-999.0,58,-99.99,,,0.00,Acu-Link.com,2013-04-28 16:28:00,
2013-04-28 11:43:00,70.9,52.9,29.64,SSW,202,12.5,-999.0,53,-99.99,,,0.00,Acu-Link.com,2013-04-28 16:43:00,
2013-04-28 11:58:00,71.2,50.5,29.64,SSE,157,13.0,-999.0,48,-99.99,,,0.00,Acu-Link.com,2013-04-28 16:58:00,
2013-04-28 12:14:00,72.7,49.5,29.63,South,180,17.1,-999.0,44,-99.99,,,0.00,Acu-Link.com,2013-04-28 17:14:00,
2013-04-28 12:29:00,73.9,49.3,29.62,SSE,157,14.0,-999.0,42,-99.99,,,0.00,Acu-Link.com,2013-04-28 17:29:00,
2013-04-28 12:44:00,75.2,47.1,29.61,SSW,202,14.0,-999.0,37,-99.99,,,0.00,Acu-Link.com,2013-04-28 17:44:00,
2013-04-28 12:59:00,74.7,47.4,29.60,South,180,11.9,-999.0,38,-99.99,,,0.00,Acu-Link.com,2013-04-28 17:59:00,
2013-04-28 13:14:00,76.5,47.5,29.60,SSW,202,10.9,-999.0,36,-99.99,,,0.00,Acu-Link.com,2013-04-28 18:14:00,
2013-04-28 13:30:00,76.3,48.1,29.60,South,180,10.9,-999.0,37,-99.99,,,0.00,Acu-Link.com,2013-04-28 18:30:00,
2013-04-28 13:45:00,77.7,46.3,29.60,SSW,202,10.4,-999.0,33,-99.99,,,0.00,Acu-Link.com,2013-04-28 18:45:00,
2013-04-28 14:00:00,78.1,47.4,29.59,SSW,202,6.3,-999.0,34,-99.99,,,0.00,Acu-Link.com,2013-04-28 19:00:00,
2013-04-28 14:15:00,78.1,48.2,29.59,SW,225,14.0,-999.0,35,-99.99,,,0.00,Acu-Link.com,2013-04-28 19:15:00,
2013-04-28 14:31:00,77.9,48.0,29.57,SSE,157,10.4,-999.0,35,-99.99,,,0.00,Acu-Link.com,2013-04-28 19:31:00,
2013-04-28 14:46:00,78.8,50.3,29.58,SSW,202,8.3,-999.0,37,-99.99,,,0.00,Acu-Link.com,2013-04-28 19:46:00,
2013-04-28 15:01:00,78.6,49.4,29.57,South,180,7.8,-999.0,36,-99.99,,,0.00,Acu-Link.com,2013-04-28 20:01:00,
2013-04-28 15:16:00,78.8,49.6,29.56,SSW,202,9.9,-999.0,36,-99.99,,,0.00,Acu-Link.com,2013-04-28 20:16:00,
2013-04-28 15:31:00,78.4,49.2,29.56,SSW,202,11.9,-999.0,36,-99.99,,,0.00,Acu-Link.com,2013-04-28 20:31:00,
2013-04-28 15:47:00,80.6,50.4,29.55,SSW,202,5.8,-999.0,35,-99.99,,,0.00,Acu-Link.com,2013-04-28 20:47:00,
2013-04-28 16:02:00,79.5,50.2,29.54,South,180,11.9,-999.0,36,-99.99,,,0.00,Acu-Link.com,2013-04-28 21:02:00,
2013-04-28 16:17:00,78.4,51.4,29.53,SE,135,8.9,-999.0,39,-99.99,,,0.00,Acu-Link.com,2013-04-28 21:17:00,
2013-04-28 16:32:00,79.9,50.5,29.52,SSW,202,11.4,-999.0,36,-99.99,,,0.00,Acu-Link.com,2013-04-28 21:32:00,
2013-04-28 16:48:00,79.9,50.5,29.51,South,180,13.0,-999.0,36,-99.99,,,0.00,Acu-Link.com,2013-04-28 21:48:00,
2013-04-28 17:03:00,78.3,50.6,29.52,SSW,202,7.3,-999.0,38,-99.99,,,0.00,Acu-Link.com,2013-04-28 22:03:00,
2013-04-28 17:18:00,79.7,51.1,29.51,South,180,9.9,-999.0,37,-99.99,,,0.00,Acu-Link.com,2013-04-28 22:18:00,
2013-04-28 17:33:00,79.7,51.1,29.51,SSW,202,10.4,-999.0,37,-99.99,,,0.00,Acu-Link.com,2013-04-28 22:33:00,
2013-04-28 17:48:00,79.5,50.9,29.51,SSE,157,11.4,-999.0,37,-99.99,,,0.00,Acu-Link.com,2013-04-28 22:48:00,
2013-04-28 18:04:00,79.3,51.5,29.51,South,180,13.5,-999.0,38,-99.99,,,0.00,Acu-Link.com,2013-04-28 23:04:00,
2013-04-28 18:19:00,78.6,51.6,29.51,South,180,10.9,-999.0,39,-99.99,,,0.00,Acu-Link.com,2013-04-28 23:19:00,
2013-04-28 18:34:00,79.2,50.7,29.51,SSE,157,10.4,-999.0,37,-99.99,,,0.00,Acu-Link.com,2013-04-28 23:34:00,
2013-04-28 18:50:00,78.6,51.6,29.51,WSW,247,8.3,-999.0,39,-99.99,,,0.00,Acu-Link.com,2013-04-28 23:50:00,
2013-04-28 19:05:00,77.0,50.8,29.51,South,180,7.3,-999.0,40,-99.99,,,0.00,Acu-Link.com,2013-04-29 00:05:00,
2013-04-28 19:20:00,75.2,54.1,29.52,South,180,8.3,-999.0,48,-99.99,,,0.00,Acu-Link.com,2013-04-29 00:20:00,
2013-04-28 19:35:00,73.8,54.5,29.52,South,180,5.8,-999.0,51,-99.99,,,0.00,Acu-Link.com,2013-04-29 00:35:00,
2013-04-28 19:50:00,73.2,54.5,29.52,South,180,7.8,-999.0,52,-99.99,,,0.00,Acu-Link.com,2013-04-29 00:50:00,
2013-04-28 20:06:00,71.6,54.6,29.52,South,180,7.8,-999.0,55,-99.99,,,0.00,Acu-Link.com,2013-04-29 01:06:00,
2013-04-28 20:21:00,70.7,54.2,29.52,South,180,6.3,-999.0,56,-99.99,,,0.00,Acu-Link.com,2013-04-29 01:21:00,
2013-04-28 20:36:00,69.3,53.9,29.52,SSE,157,5.3,-999.0,58,-99.99,,,0.00,Acu-Link.com,2013-04-29 01:36:00,
2013-04-28 20:51:00,69.3,53.9,29.53,SSE,157,6.8,-999.0,58,-99.99,,,0.00,Acu-Link.com,2013-04-29 01:51:00,
2013-04-28 21:06:00,69.3,53.9,29.54,South,180,8.3,-999.0,58,-99.99,,,0.00,Acu-Link.com,2013-04-29 02:06:00,
2013-04-28 21:22:00,68.2,54.2,29.54,ESE,112,8.3,-999.0,61,-99.99,,,0.00,Acu-Link.com,2013-04-29 02:22:00,
2013-04-28 21:37:00,68.0,54.0,29.54,SSE,157,7.3,-999.0,61,-99.99,,,0.00,Acu-Link.com,2013-04-29 02:37:00,
2013-04-28 21:52:00,67.8,54.3,29.55,South,180,9.4,-999.0,62,-99.99,,,0.00,Acu-Link.com,2013-04-29 02:52:00,
2013-04-28 22:07:00,67.5,54.0,29.56,South,180,7.3,-999.0,62,-99.99,,,0.00,Acu-Link.com,2013-04-29 03:07:00,
2013-04-28 22:23:00,66.4,53.8,29.56,SSE,157,6.8,-999.0,64,-99.99,,,0.00,Acu-Link.com,2013-04-29 03:23:00,
2013-04-28 22:38:00,65.8,53.7,29.57,SSW,202,8.9,-999.0,65,-99.99,,,0.00,Acu-Link.com,2013-04-29 03:38:00,
2013-04-28 22:53:00,64.9,53.7,29.56,SSE,157,6.3,-999.0,67,-99.99,,,0.00,Acu-Link.com,2013-04-29 03:53:00,
2013-04-28 23:08:00,64.0,54.0,29.57,SSE,157,10.9,-999.0,70,-99.99,,,0.00,Acu-Link.com,2013-04-29 04:08:00,
2013-04-28 23:23:00,63.7,54.1,29.56,SSE,157,7.3,-999.0,71,-99.99,,,0.00,Acu-Link.com,2013-04-29 04:23:00,
2013-04-28 23:39:00,63.0,54.6,29.57,South,180,7.3,-999.0,74,-99.99,,,0.00,Acu-Link.com,2013-04-29 04:39:00,
2013-04-28 23:54:00,62.6,54.6,29.57,SSE,157,6.8,-999.0,75,-99.99,,,0.00,Acu-Link.com,2013-04-29 04:54:00,